Wind_Speed
29 30 34 33 32 28 27 27 25 25 25 23 21 20 18 19 22 25 27 30 31 31 34 35 38 38 38 41 40 40 38 34 31 23 17 14 13 11
29 33 27 32 33 30 27 27 24 21 20 19 19 18 18 18 19 23 26 28 28 29 30 33 35 36 39 40 41 44 43 45 47 44 42 39 33 28
28 29 35 27 28 31 29 26 23 18 17 14 14 13 11 12 14 16 17 19 22 21 23 28 28 34 35 35 38 39 40 40 41 40 39 37 35 34
22 26 30 32 27 24 29 27 22 17 11 10 9 12 8 12 13 11 12 14 17 18 18 18 21 21 26 29 26 28 31 30 30 33 35 34 35 35
16 21 24 28 27 27 25 27 27 19 9 6 5 7 7 3 2 3 7 8 12 16 17 17 18 18 20 20 21 21 19 24 24 27 28 29 29 29
7 13 19 24 25 23 25 24 22 23 19 8 1 3 4 4 5 5 5 2 5 6 10 13 15 17 15 13 12 13 15 16 19 22 24 25 27 27
10 10 13 16 20 21 18 18 20 21 20 18 11 2 5 7 11 8 6 3 5 4 2 6 7 8 9 7 5 7 10 13 16 17 20 19 21 23
16 15 9 23 20 18 17 19 18 19 20 17 16 12 7 4 3 8 9 9 10 8 8 6 7 5 3 4 4 2 1 5 9 12 15 19 20 20
25 22 22 21 25 22 19 24 22 18 20 21 17 15 13 11 9 6 5 12 12 14 12 13 12 12 11 10 7 8 6 4 10 12 16 20 22 22
30 31 32 31 30 25 25 27 25 25 24 23 24 20 18 18 12 7 5 5 6 7 16 21 23 21 19 16 16 12 11 13 14 18 19 20 23 15
38 35 39 42 40 35 30 31 32 30 31 32 30 32 32 27 24 22 16 12 11 12 11 11 12 18 23 23 23 21 20 23 22 22 20 26 32 21
44 42 42 42 42 45 44 38 39 36 35 37 37 37 40 37 30 22 25 24 18 18 14 14 12 14 13 15 22 28 29 27 26 32 31 31 29 22
53 51 49 52 49 50 50 49 48 44 43 40 41 40 43 42 44 41 30 26 30 27 25 27 20 18 17 13 13 21 24 28 32 32 34 30 27 30
62 59 58 57 57 54 56 56 55 54 52 46 48 45 47 49 46 45 49 45 38 33 37 36 33 31 28 24 20 16 21 27 32 34 37 41 36 31
68 64 67 63 62 58 66 64 59 62 56 54 55 54 56 51 52 59 54 56 54 52 47 42 39 37 40 35 35 38 37 34 37 31 37 41 44 48
63 61 64 62 62 63 64 64 66 68 66 67 60 62 62 60 60 60 62 63 63 60 60 55 53 55 53 46 50 49 43 56 46 36 41 37 37 45
85 83 80 78 75 70 67 67 71 63 67 66 67 68 71 71 71 69 68 70 69 71 70 69 65 62 65 67 66 62 65 62 59 56 61 51 39 50
85 83 85 83 82 86 86 87 78 81 81 78 72 68 76 76 75 76 77 78 75 78 78 75 73 71 69 70 75 71 73 72 68 67 67 66 64 65
98 97 101 96 99 89 92 92 94 95 95 101 95 94 92 88 86 83 81 78 80 79 81 83 82 82 79 77 78 79 78 82 76 70 78 76 76 70
114 112 109 110 107 107 108 106 104 104 101 101 100 105 108 103 100 98 93 98 95 97 97 98 93 87 91 87 82 87 88 84 86 84 79 81 84 82
117 118 120 120 118 119 119 118 116 117 118 114 113 112 113 113 115 115 117 116 119 117 117 116 111 111 111 108 100 94 94 97 99 95 92 85 85 96
117 118 120 120 120 120 120 121 122 123 123 122 121 123 123 124 122 124 128 128 128 127 125 124 124 127 126 123 120 117 111 109 108 107 111 109 101 97
122 124 125 125 125 125 126 125 126 126 126 127 126 127 127 127 126 126 125 132 136 136 138 140 141 137 137 136 133 129 131 133 132 130 125 126 124 116
Wind_Direction
42 49 57 56 58 62 65 70 72 70 67 71 75 92 96 92 86 89 86 84 75 76 79 79 79 75 76 76 74 74 72 72 70 74 81 85 86 87
45 47 45 49 57 57 60 62 66 75 74 83 87 102 95 102 99 97 98 90 86 84 78 84 86 85 86 81 83 79 75 76 75 75 77 78 78 79
56 54 50 50 47 49 53 58 60 67 66 81 89 107 94 103 106 92 85 83 80 75 84 92 87 90 87 79 80 79 79 77 77 78 77 77 79 81
49 58 57 51 51 46 45 50 58 70 92 72 94 114 94 115 96 74 85 84 78 78 79 72 84 77 79 84 77 83 82 79 76 79 69 69 70 72
38 38 52 45 51 55 52 49 49 53 74 69 118 144 133 127 276 35 77 115 87 91 92 89 87 88 88 84 85 82 71 75 69 65 66 66 65 57
7 26 20 20 22 32 44 49 47 45 50 58 58 223 241 301 298 304 315 259 161 99 82 109 112 110 106 99 74 82 75 55 53 51 56 58 51 48
305 320 344 354 358 1 3 20 33 39 42 41 46 77 283 322 341 322 337 270 219 203 114 138 121 128 134 126 90 51 40 49 50 29 21 17 27 35
296 287 292 322 342 335 335 347 348 352 2 14 22 23 34 10 288 287 304 306 257 259 263 245 238 242 214 168 156 117 343 15 8 1 11 15 10 13
277 277 291 302 317 322 304 320 324 333 326 340 347 360 12 19 23 13 278 257 277 282 263 254 262 262 255 269 289 283 323 331 323 339 339 351 351 351
274 268 270 277 287 304 302 304 307 305 312 310 314 323 330 334 335 357 14 17 348 300 269 267 273 275 275 284 286 267 292 301 308 312 317 333 348 352
275 273 270 271 275 279 288 288 298 297 295 298 295 292 295 310 319 309 316 318 323 344 325 314 305 279 271 274 277 278 279 287 290 294 306 316 320 321
275 278 275 275 274 274 278 280 284 289 287 287 286 285 286 287 300 304 295 291 298 295 302 317 318 311 299 286 275 271 275 277 282 286 285 292 301 298
272 272 276 274 273 277 273 274 275 279 279 282 274 279 271 272 279 283 292 294 295 290 288 294 299 302 303 306 302 293 286 277 278 282 277 272 278 282
270 274 274 274 269 274 278 274 274 275 280 274 275 273 269 268 271 270 275 279 279 284 284 290 288 290 293 299 295 301 302 305 302 291 279 276 270 264
270 274 271 270 267 270 279 276 272 278 273 273 273 269 266 266 271 269 266 272 276 279 283 285 271 282 288 287 293 293 294 301 300 297 296 286 279 271
260 262 263 269 266 272 272 268 270 274 271 273 272 268 266 267 270 265 266 265 268 273 275 275 279 274 277 270 275 286 290 303 287 280 298 290 293 286
258 256 256 262 266 268 271 274 270 272 273 273 273 271 264 267 265 265 265 263 266 268 274 271 269 272 274 278 280 279 274 288 292 292 296 297 282 295
256 258 258 257 256 259 259 261 263 261 268 267 271 269 270 269 263 266 263 263 260 264 265 269 265 269 269 270 277 277 281 282 285 292 291 293 288 298
260 257 261 263 260 261 260 260 261 262 265 267 265 265 266 266 265 264 262 260 263 267 268 264 269 269 271 272 271 277 270 274 275 279 288 287 289 283
263 266 266 265 269 266 268 270 267 270 268 264 265 263 264 268 262 263 260 259 262 264 270 269 272 270 270 270 265 275 276 270 267 268 275 283 284 281
266 266 268 269 269 268 270 270 270 269 269 270 266 267 266 266 265 264 264 263 262 265 268 271 271 272 272 274 270 267 266 270 272 269 266 268 273 278
265 265 265 267 268 268 268 269 269 269 269 270 269 269 269 269 268 265 262 262 262 262 263 264 265 268 268 270 270 269 270 269 269 268 271 269 270 270
266 266 266 268 269 270 270 271 271 271 271 271 271 270 270 269 268 267 267 265 262 263 264 263 263 264 264 265 266 266 268 270 271 270 270 270 271 270
Height
11000 10998 10996 10993 10991 10988 10986 10984 10982 10980 10980 10980 10980 10979 10978 10975 10974 10973 10971 10970 10967 10964 10961 10958 10955 10952 10950 10948 10946 10943 10940 10938 10937 10937 10937 10937 10936 10936
11005 11004 11002 11000 10997 10995 10993 10991 10989 10986 10985 10985 10985 10985 10985 10983 10981 10980 10979 10977 10975 10973 10970 10967 10965 10964 10961 10959 10956 10954 10953 10950 10948 10947 10946 10944 10943 10942
11010 11008 11007 11005 11003 11001 10999 10997 10995 10994 10993 10992 10992 10992 10991 10990 10987 10986 10985 10982 10980 10978 10977 10976 10975 10972 10971 10969 10968 10965 10963 10961 10959 10958 10957 10956 10955 10953
11015 11012 11011 11010 11008 11006 11004 11002 11001 10999 10999 10998 10997 10997 10996 10995 10993 10992 10991 10988 10986 10985 10983 10982 10981 10980 10979 10977 10976 10975 10972 10970 10968 10967 10966 10964 10963 10962
11018 11017 11015 11013 11012 11010 11009 11006 11005 11003 11002 11002 11001 11000 11000 10998 10997 10996 10996 10994 10992 10990 10989 10987 10986 10985 10984 10983 10982 10980 10979 10978 10975 10974 10972 10971 10970 10969
11019 11019 11018 11017 11015 11014 11013 11011 11008 11006 11005 11004 11003 11002 11001 11000 10999 10997 10997 10997 10996 10995 10993 10992 10990 10989 10988 10987 10986 10985 10984 10982 10981 10980 10978 10976 10974 10973
11019 11019 11018 11018 11017 11016 11015 11013 11011 11010 11008 11006 11004 11003 11002 11001 10999 10998 10997 10997 10998 10997 10997 10996 10994 10993 10991 10990 10990 10989 10987 10986 10984 10983 10982 10981 10979 10977
11018 11017 11018 11016 11015 11016 11014 11014 11012 11011 11009 11007 11005 11003 11002 11001 11000 10999 10998 10997 10997 10997 10996 10996 10996 10995 10995 10993 10991 10990 10989 10988 10987 10985 10984 10982 10981 10979
11015 11015 11014 11015 11015 11013 11012 11011 11011 11010 11009 11008 11006 11004 11002 11000 10998 10997 10996 10996 10996 10994 10994 10994 10994 10994 10993 10994 10994 10992 10991 10988 10988 10986 10985 10983 10982 10981
11010 11010 11009 11010 11010 11010 11009 11008 11008 11007 11006 11006 11004 11002 11000 11000 10998 10996 10994 10993 10992 10991 10991 10990 10990 10991 10991 10991 10991 10990 10989 10989 10986 10985 10984 10983 10982 10980
11002 11003 11002 11002 11003 11003 11003 11002 11002 11002 11000 11000 10999 10998 10997 10996 10995 10993 10991 10991 10990 10988 10986 10985 10985 10985 10985 10985 10986 10985 10986 10986 10985 10983 10982 10980 10981 10980
10991 10992 10993 10993 10992 10992 10993 10994 10994 10994 10994 10993 10992 10991 10991 10989 10989 10988 10987 10985 10984 10983 10982 10981 10980 10979 10980 10979 10979 10979 10979 10979 10980 10979 10977 10976 10976 10976
10978 10979 10981 10981 10981 10981 10980 10981 10982 10983 10983 10983 10983 10982 10981 10980 10980 10978 10980 10979 10978 10977 10975 10974 10974 10973 10971 10971 10972 10972 10972 10972 10970 10970 10971 10969 10969 10969
10964 10965 10965 10967 10967 10968 10968 10968 10968 10968 10969 10969 10970 10970 10969 10970 10969 10969 10966 10967 10969 10969 10968 10965 10964 10964 10964 10963 10962 10963 10963 10963 10964 10963 10962 10961 10961 10961
10949 10950 10951 10949 10950 10950 10951 10952 10953 10951 10953 10954 10955 10955 10955 10956 10955 10955 10953 10953 10952 10952 10953 10953 10953 10952 10953 10952 10951 10953 10954 10954 10955 10953 10952 10952 10950 10950
10931 10931 10932 10932 10933 10933 10932 10933 10934 10933 10933 10934 10937 10937 10937 10936 10938 10938 10938 10937 10937 10937 10938 10938 10936 10933 10935 10938 10938 10936 10938 10940 10942 10944 10940 10941 10940 10938
10910 10911 10914 10913 10913 10914 10916 10914 10915 10916 10914 10913 10915 10916 10917 10918 10918 10919 10920 10920 10919 10918 10918 10921 10921 10919 10917 10914 10916 10921 10917 10918 10923 10925 10926 10926 10924 10927
10886 10886 10888 10890 10892 10893 10893 10894 10896 10895 10895 10895 10895 10895 10894 10895 10894 10897 10897 10898 10897 10897 10897 10898 10898 10900 10902 10897 10897 10900 10895 10898 10899 10902 10904 10907 10905 10905
10859 10861 10862 10864 10865 10866 10869 10869 10869 10868 10868 10869 10870 10872 10872 10872 10871 10869 10871 10871 10872 10873 10872 10872 10874 10876 10879 10879 10872 10875 10882 10875 10877 10879 10880 10881 10888 10882
10831 10832 10833 10834 10834 10836 10836 10837 10839 10840 10842 10842 10842 10841 10841 10841 10844 10845 10843 10843 10842 10843 10842 10842 10844 10847 10850 10856 10859 10846 10846 10856 10853 10857 10855 10855 10857 10861
10799 10800 10802 10803 10803 10804 10804 10804 10805 10807 10808 10808 10809 10810 10811 10811 10811 10809 10808 10809 10809 10808 10808 10807 10809 10811 10814 10820 10825 10828 10824 10814 10820 10824 10827 10830 10832 10833
10768 10768 10768 10770 10770 10770 10771 10770 10771 10771 10772 10772 10772 10771 10771 10771 10771 10769 10770 10771 10770 10771 10772 10772 10772 10772 10774 10779 10787 10793 10792 10787 10781 10784 10791 10793 10799 10809
10734 10733 10733 10734 10734 10733 10733 10733 10732 10734 10734 10732 10731 10729 10728 10728 10729 10730 10729 10727 10728 10729 10727 10730 10730 10732 10734 10736 10742 10750 10750 10748 10748 10752 10750 10752 10757 10765